Torna al catalogo

STARLINK-4658

AttivoComunicazioniVLEO
NORAD 53612·PAYLOAD·🇺🇸 United States

Lanciato Aug 28, 2022 da Cape Canaveral Space Force Station

Loading…

Prossimi Passaggi (prossime 24 ore)

TLE

AggiornatoSource: CelesTrak SupGP

Epoca: Sep 15, 2026, 02:20 UTC

1 53612C 22104AA  26258.09770833 -.00004058  00000+0 -11611-3 0  2585
2 53612  53.1574  93.2005 0001166  84.2288 213.6520 15.35400354    19

Traccia STARLINK-4658 in tempo reale con AllMySat

Download on the App Store